"read_dt","SO2 (ppb)","flags","PMT voltage (V)","lamp voltage (V)","lamp intensity (Hz)","internal temp (C)","react chamber temp (C)","sample flow (l/min)","pres (mmHg)","SO2 bkg (ppb)","SO2 coefficient"
2015-06-24 00:00:00,1631E-3,5C000000,-0724,0824,12198,026.6,045.4,0.477,732.3,01.19,0.508
2015-06-24 00:01:00,1643E-3,5C000000,-0724,0823,12370,026.6,045.4,0.477,732.3,01.19,0.508
2015-06-24 00:02:00,1746E-3,5C000000,-0724,0822,12244,026.6,045.4,0.477,732.2,01.19,0.508
2015-06-24 00:03:00,1729E-3,5C000000,-0724,0823,12298,026.6,045.4,0.477,732.3,01.19,0.508
2015-06-24 00:04:00,1744E-3,5C000000,-0724,0822,12113,026.6,045.4,0.477,732.3,01.19,0.508
2015-06-24 00:05:00,1662E-3,5C000000,-0724,0822,12248,026.6,045.4,0.477,732.3,01.19,0.508
2015-06-24 00:06:00,1725E-3,5C000000,-0724,0822,12318,026.6,045.4,0.477,732.3,01.19,0.508
2015-06-24 00:07:00,1693E-3,5C000000,-0724,0823,12224,026.6,045.4,0.477,732.3,01.19,0.508
2015-06-24 00:08:00,1725E-3,5C000000,-0724,0823,12326,026.6,045.4,0.477,732.3,01.19,0.508
2015-06-24 00:09:00,1615E-3,5C000000,-0724,0823,12146,026.6,045.4,0.477,732.3,01.19,0.508
2015-06-24 00:10:00,1684E-3,5C000000,-0724,0823,12131,026.6,045.4,0.477,732.3,01.19,0.508
2015-06-24 00:11:00,1797E-3,5C000000,-0724,0823,12130,026.6,045.4,0.477,732.3,01.19,0.508
2015-06-24 00:12:00,1816E-3,5C000000,-0724,0823,12204,026.6,045.4,0.477,732.3,01.19,0.508
2015-06-24 00:13:00,1726E-3,5C000000,-0724,0823,12363,026.6,045.4,0.477,732.3,01.19,0.508
2015-06-24 00:14:00,1737E-3,5C000000,-0724,0823,12138,026.6,045.4,0.476,732.3,01.19,0.508
2015-06-24 00:15:00,1681E-3,5C000000,-0724,0823,12336,026.6,045.4,0.477,732.3,01.19,0.508
2015-06-24 00:16:00,1596E-3,5C000000,-0724,0823,12377,026.6,045.4,0.477,732.2,01.19,0.508
2015-06-24 00:17:00,1679E-3,5C000000,-0724,0822,12290,026.6,045.4,0.477,732.3,01.19,0.508
2015-06-24 00:18:00,1474E-3,5C000000,-0724,0822,12331,026.6,045.4,0.477,732.4,01.19,0.508
2015-06-24 00:19:00,1707E-3,5C000000,-0724,0823,12232,026.6,045.4,0.477,732.4,01.19,0.508
2015-06-24 00:20:00,1514E-3,5C000000,-0724,0823,12277,026.6,045.4,0.477,732.3,01.19,0.508
2015-06-24 00:21:00,1756E-3,5C000000,-0724,0823,12313,026.6,045.4,0.477,732.4,01.19,0.508
2015-06-24 00:22:00,1539E-3,5C000000,-0724,0823,12200,026.6,045.4,0.477,732.3,01.19,0.508
2015-06-24 00:23:00,1736E-3,5C000000,-0724,0822,12093,026.6,045.4,0.477,732.3,01.19,0.508
2015-06-24 00:24:00,1600E-3,5C000000,-0724,0823,12372,026.6,045.4,0.477,732.4,01.19,0.508
2015-06-24 00:25:00,1743E-3,5C000000,-0724,0823,12388,026.6,045.4,0.477,732.4,01.19,0.508
2015-06-24 00:26:00,1697E-3,5C000000,-0724,0823,12306,026.6,045.4,0.477,732.3,01.19,0.508
2015-06-24 00:27:00,1602E-3,5C000000,-0724,0823,12330,026.6,045.4,0.477,732.3,01.19,0.508
2015-06-24 00:28:00,1604E-3,5C000000,-0724,0822,12282,026.6,045.4,0.477,732.3,01.19,0.508
2015-06-24 00:29:00,1743E-3,5C000000,-0724,0823,12235,026.6,045.4,0.477,732.4,01.19,0.508
2015-06-24 00:30:00,1750E-3,5C000000,-0724,0823,12249,026.6,045.4,0.477,732.4,01.19,0.508
2015-06-24 00:31:00,1610E-3,5C000000,-0724,0823,12262,026.6,045.4,0.477,732.4,01.19,0.508
2015-06-24 00:32:00,1604E-3,5C000000,-0724,0822,12282,026.6,045.4,0.477,732.4,01.19,0.508
2015-06-24 00:33:00,1854E-3,5C000000,-0724,0823,12179,026.6,045.4,0.477,732.3,01.19,0.508
2015-06-24 00:34:00,1735E-3,5C000000,-0724,0823,12364,026.6,045.4,0.477,732.4,01.19,0.508
2015-06-24 00:35:00,1739E-3,5C000000,-0724,0823,12303,026.6,045.4,0.477,732.3,01.19,0.508
2015-06-24 00:36:00,1693E-3,5C000000,-0724,0824,12259,026.6,045.4,0.477,732.3,01.19,0.508
2015-06-24 00:37:00,1659E-3,5C000000,-0724,0824,12226,026.6,045.4,0.477,732.4,01.19,0.508
2015-06-24 00:38:00,1725E-3,5C000000,-0724,0823,11958,026.6,045.4,0.477,732.3,01.19,0.508
2015-06-24 00:39:00,1808E-3,5C000000,-0724,0823,12270,026.6,045.4,0.477,732.4,01.19,0.508
2015-06-24 00:40:00,1734E-3,5C000000,-0724,0823,12361,026.6,045.4,0.477,732.4,01.19,0.508
2015-06-24 00:41:00,1712E-3,5C000000,-0724,0823,12218,026.6,045.4,0.477,732.4,01.19,0.508
2015-06-24 00:42:00,1788E-3,5C000000,-0724,0824,12192,026.6,045.4,0.477,732.4,01.19,0.508
2015-06-24 00:43:00,1666E-3,5C000000,-0724,0824,12388,026.6,045.4,0.477,732.4,01.19,0.508
2015-06-24 00:44:00,1646E-3,5C000000,-0724,0823,12310,026.6,045.4,0.477,732.4,01.19,0.508
2015-06-24 00:45:00,1746E-3,5C000000,-0724,0824,12198,026.6,045.4,0.477,732.4,01.19,0.508
2015-06-24 00:46:00,1753E-3,5C000000,-0724,0823,12261,026.6,045.4,0.477,732.4,01.19,0.508
2015-06-24 00:47:00,1653E-3,5C000000,-0724,0824,12211,026.6,045.4,0.477,732.5,01.19,0.508
2015-06-24 00:48:00,1536E-3,5C000000,-0724,0824,12376,026.6,045.4,0.477,732.5,01.19,0.508
2015-06-24 00:49:00,1592E-3,5C000000,-0724,0824,12364,026.6,045.4,0.477,732.4,01.19,0.508
2015-06-24 00:50:00,1654E-3,5C000000,-0724,0822,12341,026.6,045.4,0.477,732.5,01.19,0.508
2015-06-24 00:51:00,1571E-3,5C000000,-0724,0823,12287,026.6,045.4,0.477,732.5,01.19,0.508
2015-06-24 00:52:00,1619E-3,5C000000,-0724,0823,12264,026.6,045.4,0.477,732.5,01.19,0.508
2015-06-24 00:53:00,1676E-3,5C000000,-0724,0823,12446,026.6,045.4,0.477,732.4,01.19,0.508
2015-06-24 00:54:00,1578E-3,5C000000,-0724,0823,12245,026.6,045.4,0.477,732.4,01.19,0.508
2015-06-24 00:55:00,1719E-3,5C000000,-0724,0823,12246,026.6,045.4,0.477,732.5,01.19,0.508
2015-06-24 00:56:00,1728E-3,5C000000,-0724,0823,12466,026.6,045.4,0.477,732.4,01.19,0.508
2015-06-24 00:57:00,1745E-3,5C000000,-0724,0823,12285,026.6,045.4,0.477,732.6,01.19,0.508
2015-06-24 00:58:00,1634E-3,5C000000,-0724,0824,12216,026.6,045.4,0.477,732.6,01.19,0.508
2015-06-24 00:59:00,1696E-3,5C000000,-0724,0823,12349,026.6,045.4,0.477,732.6,01.19,0.508
2015-06-24 01:00:00,1700E-3,5C000000,-0724,0823,12340,026.6,045.4,0.477,732.6,01.19,0.508
2015-06-24 01:01:00,1589E-3,5C000000,-0724,0824,12269,026.6,045.4,0.477,732.6,01.19,0.508
2015-06-24 01:02:00,1677E-3,5C000000,-0724,0824,12265,026.6,045.4,0.477,732.6,01.19,0.508
2015-06-24 01:03:00,1685E-3,5C000000,-0724,0824,12208,026.6,045.4,0.477,732.6,01.19,0.508
2015-06-24 01:04:00,1863E-3,5C000000,-0724,0823,12186,026.6,045.4,0.477,732.6,01.19,0.508
2015-06-24 01:05:00,1789E-3,5C000000,-0724,0822,12205,026.6,045.4,0.477,732.6,01.19,0.508
2015-06-24 01:06:00,1647E-3,5C000000,-0724,0823,12305,026.6,045.4,0.477,732.6,01.19,0.508
2015-06-24 01:07:00,1596E-3,5C000000,-0724,0824,12295,026.6,045.4,0.477,732.6,01.19,0.508
2015-06-24 01:08:00,1695E-3,5C000000,-0724,0823,12300,026.6,045.4,0.477,732.6,01.19,0.508
2015-06-24 01:09:00,1620E-3,5C000000,-0724,0823,12342,026.6,045.4,0.477,732.6,01.19,0.508
2015-06-24 01:10:00,1675E-3,5C000000,-0724,0824,12256,026.6,045.4,0.477,732.6,01.19,0.508
2015-06-24 01:11:00,1712E-3,5C000000,-0724,0823,12365,026.6,045.4,0.477,732.5,01.19,0.508
2015-06-24 01:12:00,1889E-3,5C000000,-0724,0824,12235,026.6,045.4,0.477,732.6,01.19,0.508
2015-06-24 01:13:00,1851E-3,5C000000,-0724,0824,12240,026.6,045.4,0.477,732.6,01.19,0.508
2015-06-24 01:14:00,1555E-3,5C000000,-0724,0823,12192,026.6,045.4,0.477,732.6,01.19,0.508
2015-06-24 01:15:00,1613E-3,5C000000,-0724,0823,12442,026.6,045.4,0.477,732.5,01.19,0.508
2015-06-24 01:16:00,1537E-3,5C000000,-0724,0824,12048,026.6,045.4,0.477,732.6,01.19,0.508
2015-06-24 01:17:00,1613E-3,5C000000,-0724,0824,12427,026.6,045.4,0.477,732.6,01.19,0.508
2015-06-24 01:18:00,1646E-3,5C000000,-0724,0823,12242,026.6,045.4,0.477,732.4,01.19,0.508
2015-06-24 01:19:00,1741E-3,5C000000,-0724,0823,12277,026.6,045.4,0.477,732.5,01.19,0.508
2015-06-24 01:20:00,1573E-3,5C000000,-0724,0824,12382,026.6,045.4,0.477,732.5,01.19,0.508
2015-06-24 01:21:00,1655E-3,5C000000,-0724,0823,12298,026.6,045.4,0.477,732.5,01.19,0.508
2015-06-24 01:22:00,1732E-3,5C000000,-0724,0823,12101,026.6,045.4,0.477,732.5,01.19,0.508
2015-06-24 01:23:00,1589E-3,5C000000,-0724,0824,12222,026.6,045.4,0.477,732.6,01.19,0.508
2015-06-24 01:24:00,1703E-3,5C000000,-0724,0823,12279,026.6,045.4,0.477,732.7,01.19,0.508
2015-06-24 01:25:00,1566E-3,5C000000,-0724,0823,12162,026.6,045.4,0.477,732.6,01.19,0.508
2015-06-24 01:26:00,1662E-3,5C000000,-0724,0823,12248,026.7,045.4,0.477,732.6,01.19,0.508
2015-06-24 01:27:00,1695E-3,5C000000,-0724,0823,12236,026.6,045.4,0.477,732.6,01.19,0.508
2015-06-24 01:28:00,1622E-3,5C000000,-0724,0823,12249,026.6,045.4,0.477,732.6,01.19,0.508
2015-06-24 01:29:00,1595E-3,5C000000,-0724,0823,12122,026.6,045.4,0.477,732.6,01.19,0.508
2015-06-24 01:30:00,1755E-3,5C000000,-0724,0824,12253,026.6,045.4,0.477,732.6,01.19,0.508
2015-06-24 01:31:00,1698E-3,5C000000,-0724,0823,12267,026.7,045.4,0.477,732.7,01.19,0.508
2015-06-24 01:32:00,1761E-3,5C000000,-0724,0823,12124,026.6,045.4,0.477,732.6,01.19,0.508
2015-06-24 01:33:00,1688E-3,5C000000,-0724,0823,12339,026.6,045.4,0.477,732.6,01.19,0.508
2015-06-24 01:34:00,1700E-3,5C000000,-0724,0824,12206,026.6,045.4,0.477,732.7,01.19,0.508
2015-06-24 01:35:00,1634E-3,5C000000,-0724,0823,12235,026.6,045.4,0.477,732.7,01.19,0.508
2015-06-24 01:36:00,1719E-3,5C000000,-0724,0824,12359,026.7,045.4,0.477,732.7,01.19,0.508
2015-06-24 01:37:00,1809E-3,5C000000,-0724,0824,12340,026.7,045.4,0.477,732.7,01.19,0.508
2015-06-24 01:38:00,1637E-3,5C000000,-0724,0824,12311,026.6,045.4,0.477,732.7,01.19,0.508
2015-06-24 01:39:00,1832E-3,5C000000,-0724,0824,12167,026.7,045.4,0.477,732.7,01.19,0.508
2015-06-24 01:40:00,1698E-3,5C000000,-0724,0823,12196,026.7,045.4,0.477,732.6,01.19,0.508
2015-06-24 01:41:00,1651E-3,5C000000,-0724,0823,12246,026.7,045.4,0.477,732.7,01.19,0.508
2015-06-24 01:42:00,1680E-3,5C000000,-0724,0824,12261,026.7,045.4,0.477,732.6,01.19,0.508
2015-06-24 01:43:00,1732E-3,5C000000,-0724,0823,12293,026.7,045.4,0.477,732.6,01.19,0.508
2015-06-24 01:44:00,1672E-3,5C000000,-0724,0823,12245,026.7,045.4,0.477,732.7,01.19,0.508
2015-06-24 01:45:00,1712E-3,5C000000,-0724,0823,12219,026.7,045.4,0.477,732.6,01.19,0.508
2015-06-24 01:46:00,1641E-3,5C000000,-0724,0824,12322,026.7,045.4,0.477,732.6,01.19,0.508
2015-06-24 01:47:00,1825E-3,5C000000,-0724,0823,12305,026.7,045.4,0.477,732.6,01.19,0.508
2015-06-24 01:48:00,1678E-3,5C000000,-0724,0824,12243,026.7,045.4,0.477,732.7,01.19,0.508
2015-06-24 01:49:00,1543E-3,5C000000,-0724,0823,12370,026.7,045.4,0.477,732.7,01.19,0.508
2015-06-24 01:50:00,1772E-3,5C000000,-0724,0823,12360,026.6,045.4,0.477,732.8,01.19,0.508
2015-06-24 01:51:00,1752E-3,5C000000,-0724,0824,12223,026.7,045.4,0.477,732.6,01.19,0.508
2015-06-24 01:52:00,1677E-3,5C000000,-0724,0823,12137,026.7,045.4,0.477,732.6,01.19,0.508
2015-06-24 01:53:00,1712E-3,5C000000,-0724,0822,12295,026.7,045.4,0.477,732.7,01.19,0.508
2015-06-24 01:54:00,1701E-3,5C000000,-0724,0823,12292,026.7,045.4,0.477,732.7,01.19,0.508
2015-06-24 01:55:00,1637E-3,5C000000,-0724,0823,12230,026.7,045.4,0.477,732.7,01.19,0.508
2015-06-24 01:56:00,1666E-3,5C000000,-0724,0824,12320,026.7,045.4,0.477,732.8,01.19,0.508
2015-06-24 01:57:00,1532E-3,5C000000,-0724,0823,12322,026.7,045.4,0.477,732.8,01.19,0.508
2015-06-24 01:58:00,1688E-3,5C000000,-0724,0822,12253,026.7,045.4,0.477,732.7,01.19,0.508
2015-06-24 01:59:00,1751E-3,5C000000,-0724,0824,12299,026.7,045.4,0.477,732.8,01.19,0.508
2015-06-24 02:00:00,1665E-3,5C000000,-0724,0824,12235,026.7,045.4,0.477,732.7,01.19,0.508
2015-06-24 02:01:00,1493E-3,5C000000,-0724,0824,12304,026.7,045.4,0.477,732.7,01.19,0.508
2015-06-24 02:02:00,1835E-3,5C000000,-0724,0823,12094,026.7,045.4,0.477,732.7,01.19,0.508
2015-06-24 02:03:00,1719E-3,5C000000,-0724,0823,12274,026.7,045.4,0.477,732.7,01.19,0.508
2015-06-24 02:04:00,1696E-3,5C000000,-0724,0823,12246,026.7,045.4,0.477,732.6,01.19,0.508
2015-06-24 02:05:00,1606E-3,5C000000,-0724,0823,12222,026.7,045.4,0.477,732.6,01.19,0.508
2015-06-24 02:06:00,1658E-3,5C000000,-0724,0824,12351,026.7,045.4,0.477,732.6,01.19,0.508
2015-06-24 02:07:00,1686E-3,5C000000,-0724,0823,12328,026.7,045.4,0.477,732.6,01.19,0.508
2015-06-24 02:08:00,1668E-3,5C000000,-0724,0823,12070,026.7,045.4,0.477,732.7,01.19,0.508
2015-06-24 02:09:00,1748E-3,5C000000,-0724,0823,12173,026.7,045.4,0.477,732.6,01.19,0.508
2015-06-24 02:10:00,1611E-3,5C000000,-0724,0824,12195,026.7,045.4,0.477,732.6,01.19,0.508
2015-06-24 02:11:00,1583E-3,5C000000,-0724,0824,12314,026.7,045.4,0.477,732.6,01.19,0.508
2015-06-24 02:12:00,1616E-3,5C000000,-0724,0825,12233,026.7,045.4,0.477,732.6,01.19,0.508
2015-06-24 02:13:00,1603E-3,5C000000,-0724,0824,12066,026.7,045.4,0.477,732.7,01.19,0.508
2015-06-24 02:14:00,1736E-3,5C000000,-0724,0822,12187,026.7,045.4,0.477,732.6,01.19,0.508
2015-06-24 02:15:00,1661E-3,5C000000,-0724,0824,12199,026.7,045.4,0.477,732.6,01.19,0.508
2015-06-24 02:16:00,1714E-3,5C000000,-0724,0823,12160,026.7,045.4,0.477,732.7,01.19,0.508
2015-06-24 02:17:00,1790E-3,5C000000,-0724,0824,12304,026.7,045.4,0.477,732.7,01.19,0.508
2015-06-24 02:18:00,1626E-3,5C000000,-0724,0823,12226,026.7,045.4,0.477,732.7,01.19,0.508
2015-06-24 02:19:00,1601E-3,5C000000,-0724,0823,12217,026.7,045.4,0.477,732.7,01.19,0.508
2015-06-24 02:20:00,1664E-3,5C000000,-0724,0825,12336,026.7,045.4,0.477,732.7,01.19,0.508
2015-06-24 02:21:00,1642E-3,5C000000,-0724,0823,12252,026.7,045.4,0.477,732.7,01.19,0.508
2015-06-24 02:22:00,1626E-3,5C000000,-0724,0823,12005,026.7,045.4,0.477,732.6,01.19,0.508
2015-06-24 02:23:00,1729E-3,5C000000,-0724,0824,12224,026.7,045.4,0.477,732.6,01.19,0.508
2015-06-24 02:24:00,1556E-3,5C000000,-0724,0824,12256,026.7,045.4,0.477,732.6,01.19,0.508
2015-06-24 02:25:00,1657E-3,5C000000,-0724,0823,12170,026.7,045.4,0.477,732.6,01.19,0.508
2015-06-24 02:26:00,1562E-3,5C000000,-0724,0823,12203,026.7,045.4,0.476,732.6,01.19,0.508
2015-06-24 02:27:00,1681E-3,5C000000,-0724,0824,12265,026.7,045.4,0.477,732.5,01.19,0.508
2015-06-24 02:28:00,1715E-3,5C000000,-0724,0823,12329,026.7,045.4,0.477,732.6,01.19,0.508
2015-06-24 02:29:00,1859E-3,5C000000,-0724,0824,12305,026.7,045.4,0.477,732.5,01.19,0.508
2015-06-24 02:30:00,1527E-3,5C000000,-0724,0823,12366,026.7,045.4,0.477,732.7,01.19,0.508
2015-06-24 02:31:00,1729E-3,5C000000,-0724,0824,12331,026.7,045.4,0.476,732.7,01.19,0.508
2015-06-24 02:32:00,1523E-3,5C000000,-0724,0823,12219,026.7,045.4,0.477,732.6,01.19,0.508
2015-06-24 02:33:00,1676E-3,5C000000,-0724,0823,12275,026.7,045.4,0.477,732.6,01.19,0.508
2015-06-24 02:34:00,1685E-3,5C000000,-0724,0824,12060,026.7,045.4,0.477,732.4,01.19,0.508
2015-06-24 02:35:00,1728E-3,5C000000,-0724,0824,12409,026.7,045.4,0.477,732.7,01.19,0.508
2015-06-24 02:36:00,1733E-3,5C000000,-0724,0823,12158,026.7,045.4,0.476,732.6,01.19,0.508
2015-06-24 02:37:00,1620E-3,5C000000,-0724,0823,12118,026.7,045.4,0.477,732.6,01.19,0.508
2015-06-24 02:38:00,1741E-3,5C000000,-0724,0823,12311,026.7,045.4,0.477,732.7,01.19,0.508
2015-06-24 02:39:00,1649E-3,5C000000,-0724,0824,12305,026.7,045.4,0.477,732.7,01.19,0.508
2015-06-24 02:40:00,1604E-3,5C000000,-0724,0823,12223,026.7,045.4,0.477,732.7,01.19,0.508
2015-06-24 02:41:00,1633E-3,5C000000,-0724,0823,12324,026.7,045.4,0.477,732.8,01.19,0.508
2015-06-24 02:42:00,1724E-3,5C000000,-0724,0823,12251,026.7,045.4,0.477,732.7,01.19,0.508
2015-06-24 02:43:00,1635E-3,5C000000,-0724,0824,12327,026.7,045.4,0.477,732.7,01.19,0.508
2015-06-24 02:44:00,1743E-3,5C000000,-0724,0823,12270,026.7,045.4,0.477,732.7,01.19,0.508
2015-06-24 02:45:00,1639E-3,5C000000,-0724,0824,12310,026.7,045.4,0.476,732.7,01.19,0.508
2015-06-24 02:46:00,1703E-3,5C000000,-0724,0824,12193,026.7,045.4,0.477,732.8,01.19,0.508
2015-06-24 02:47:00,1698E-3,5C000000,-0724,0824,12322,026.7,045.4,0.477,732.6,01.19,0.508
2015-06-24 02:48:00,1630E-3,5C000000,-0724,0823,12375,026.7,045.4,0.477,732.7,01.19,0.508
2015-06-24 02:49:00,1675E-3,5C000000,-0724,0823,12276,026.7,045.4,0.477,732.7,01.19,0.508
2015-06-24 02:50:00,1653E-3,5C000000,-0724,0823,12304,026.7,045.4,0.476,732.5,01.19,0.508
2015-06-24 02:51:00,1637E-3,5C000000,-0724,0825,12279,026.7,045.4,0.477,732.7,01.19,0.508
2015-06-24 02:52:00,1781E-3,5C000000,-0724,0824,12432,026.8,045.4,0.477,732.7,01.19,0.508
2015-06-24 02:53:00,1606E-3,5C000000,-0724,0823,12238,026.7,045.4,0.477,732.8,01.19,0.508
2015-06-24 02:54:00,1637E-3,5C000000,-0724,0823,12297,026.7,045.4,0.477,732.8,01.19,0.508
2015-06-24 02:55:00,1626E-3,5C000000,-0724,0823,12303,026.8,045.4,0.476,732.8,01.19,0.508
2015-06-24 02:56:00,1712E-3,5C000000,-0724,0823,12162,026.8,045.4,0.477,732.8,01.19,0.508
2015-06-24 02:57:00,1675E-3,5C000000,-0724,0822,12300,026.8,045.4,0.477,732.8,01.19,0.508
2015-06-24 02:58:00,1561E-3,5C000000,-0724,0823,12230,026.8,045.4,0.477,732.8,01.19,0.508
2015-06-24 02:59:00,1689E-3,5C000000,-0724,0823,12247,026.8,045.4,0.476,732.9,01.19,0.508
2015-06-24 03:00:00,1645E-3,5C000000,-0724,0823,12125,026.8,045.4,0.477,732.8,01.19,0.508
2015-06-24 03:01:00,1708E-3,5C000000,-0724,0824,12201,026.8,045.4,0.477,732.7,01.19,0.508
2015-06-24 03:02:00,1591E-3,5C000000,-0724,0822,12242,026.8,045.4,0.477,732.8,01.19,0.508
2015-06-24 03:03:00,1695E-3,5C000000,-0724,0823,12051,026.8,045.4,0.477,732.9,01.19,0.508
2015-06-24 03:04:00,1648E-3,5C000000,-0724,0823,12201,026.8,045.4,0.477,732.8,01.19,0.508
2015-06-24 03:05:00,1757E-3,5C000000,-0724,0823,12262,026.8,045.4,0.477,732.8,01.19,0.508
2015-06-24 03:06:00,1788E-3,5C000000,-0724,0822,12277,026.8,045.4,0.477,732.8,01.19,0.508
2015-06-24 03:07:00,1752E-3,5C000000,-0724,0824,12352,026.8,045.4,0.476,732.7,01.19,0.508
2015-06-24 03:08:00,1701E-3,5C000000,-0724,0824,12471,026.8,045.4,0.477,732.7,01.19,0.508
2015-06-24 03:09:00,1790E-3,5C000000,-0724,0824,12352,026.8,045.4,0.477,732.8,01.19,0.508
2015-06-24 03:10:00,1742E-3,5C000000,-0724,0823,12176,026.8,045.4,0.477,732.8,01.19,0.508
2015-06-24 03:11:00,1722E-3,5C000000,-0724,0824,12364,026.8,045.4,0.477,732.8,01.19,0.508
2015-06-24 03:12:00,1623E-3,5C000000,-0724,0823,12324,026.8,045.4,0.476,732.8,01.19,0.508
2015-06-24 03:13:00,1711E-3,5C000000,-0724,0823,12301,026.8,045.4,0.477,732.7,01.19,0.508
2015-06-24 03:14:00,1679E-3,5C000000,-0724,0824,12410,026.8,045.4,0.477,732.8,01.19,0.508
2015-06-24 03:15:00,1703E-3,5C000000,-0724,0822,12246,026.8,045.4,0.477,732.7,01.19,0.508
2015-06-24 03:16:00,1609E-3,5C000000,-0724,0824,12254,026.8,045.4,0.477,732.8,01.19,0.508
2015-06-24 03:17:00,1661E-3,5C000000,-0724,0823,12234,026.8,045.4,0.476,732.8,01.19,0.508
2015-06-24 03:18:00,1597E-3,5C000000,-0724,0823,12219,026.8,045.4,0.477,732.8,01.19,0.508
2015-06-24 03:19:00,1688E-3,5C000000,-0724,0823,12066,026.8,045.4,0.477,732.8,01.19,0.508
2015-06-24 03:20:00,1657E-3,5C000000,-0724,0823,12326,026.8,045.4,0.477,732.7,01.19,0.508
2015-06-24 03:21:00,1613E-3,5C000000,-0724,0824,12235,026.8,045.4,0.477,732.7,01.19,0.508
2015-06-24 03:22:00,1600E-3,5C000000,-0724,0822,12298,026.8,045.4,0.476,732.8,01.19,0.508
2015-06-24 03:23:00,1657E-3,5C000000,-0724,0823,12307,026.8,045.4,0.477,732.7,01.19,0.508
2015-06-24 03:24:00,1686E-3,5C000000,-0724,0823,12241,026.8,045.4,0.477,732.7,01.19,0.508
2015-06-24 03:25:00,1839E-3,5C000000,-0724,0822,12266,026.8,045.4,0.477,732.8,01.19,0.508
2015-06-24 03:26:00,1555E-3,5C000000,-0724,0822,12324,026.8,045.4,0.476,732.9,01.19,0.508
2015-06-24 03:27:00,1609E-3,5C000000,-0724,0822,12419,026.8,045.4,0.477,732.8,01.19,0.508
2015-06-24 03:28:00,1764E-3,5C000000,-0724,0823,12378,026.8,045.4,0.477,732.8,01.19,0.508
2015-06-24 03:29:00,1719E-3,5C000000,-0724,0823,12240,026.8,045.4,0.477,732.8,01.19,0.508
2015-06-24 03:30:00,1667E-3,5C000000,-0724,0822,12268,026.8,045.4,0.477,732.8,01.19,0.508
2015-06-24 03:31:00,1748E-3,5C000000,-0724,0823,12162,026.8,045.4,0.476,732.8,01.19,0.508
2015-06-24 03:32:00,1851E-3,5C000000,-0724,0823,12333,026.8,045.4,0.477,732.6,01.19,0.508
2015-06-24 03:33:00,1730E-3,5C000000,-0724,0822,12067,026.8,045.4,0.477,732.6,01.19,0.508
2015-06-24 03:34:00,1604E-3,5C000000,-0724,0823,12436,026.8,045.4,0.477,732.7,01.19,0.508
2015-06-24 03:35:00,1551E-3,5C000000,-0724,0822,12168,026.8,045.4,0.477,732.6,01.19,0.508
2015-06-24 03:36:00,1554E-3,5C000000,-0724,0823,12218,026.8,045.4,0.476,732.6,01.19,0.508
2015-06-24 03:37:00,1592E-3,5C000000,-0724,0823,12181,026.8,045.4,0.477,732.7,01.19,0.508
2015-06-24 03:38:00,1711E-3,5C000000,-0724,0823,12253,026.8,045.4,0.477,732.8,01.19,0.508
2015-06-24 03:39:00,1794E-3,5C000000,-0724,0823,12212,026.8,045.4,0.477,732.7,01.19,0.508
2015-06-24 03:40:00,1662E-3,5C000000,-0724,0823,12067,026.8,045.4,0.477,732.6,01.19,0.508
2015-06-24 03:41:00,1744E-3,5C000000,-0724,0824,12249,026.8,045.4,0.477,732.8,01.19,0.508
2015-06-24 03:42:00,1726E-3,5C000000,-0724,0823,12289,026.8,045.4,0.476,732.6,01.19,0.508
2015-06-24 03:43:00,1640E-3,5C000000,-0724,0823,12348,026.8,045.4,0.477,732.7,01.19,0.508
2015-06-24 03:44:00,1745E-3,5C000000,-0724,0823,12270,026.8,045.4,0.477,732.7,01.19,0.508
2015-06-24 03:45:00,1643E-3,5C000000,-0724,0823,12391,026.8,045.4,0.477,732.6,01.19,0.508
2015-06-24 03:46:00,1552E-3,5C000000,-0724,0824,12219,026.8,045.4,0.477,732.8,01.19,0.508
2015-06-24 03:47:00,1685E-3,5C000000,-0724,0823,12100,026.8,045.4,0.476,732.7,01.19,0.508
2015-06-24 03:48:00,1688E-3,5C000000,-0724,0823,12250,026.8,045.4,0.477,732.7,01.19,0.508
2015-06-24 03:49:00,1649E-3,5C000000,-0724,0823,12222,026.9,045.4,0.477,732.8,01.19,0.508
2015-06-24 03:50:00,1747E-3,5C000000,-0724,0822,12337,026.8,045.4,0.477,732.7,01.19,0.508
2015-06-24 03:51:00,1756E-3,5C000000,-0724,0822,12271,026.8,045.4,0.476,732.6,01.19,0.508
2015-06-24 03:52:00,1565E-3,5C000000,-0724,0822,12188,026.8,045.4,0.476,732.7,01.19,0.508
2015-06-24 03:53:00,1725E-3,5C000000,-0724,0823,12244,026.8,045.4,0.477,732.7,01.19,0.508
2015-06-24 03:54:00,1715E-3,5C000000,-0724,0823,12225,026.8,045.4,0.477,732.8,01.19,0.508
2015-06-24 03:55:00,1710E-3,5C000000,-0724,0823,12260,026.8,045.4,0.477,732.7,01.19,0.508
2015-06-24 03:56:00,1543E-3,5C000000,-0724,0822,12219,026.8,045.4,0.476,732.8,01.19,0.508
2015-06-24 03:57:00,1696E-3,5C000000,-0724,0823,12229,026.9,045.4,0.476,732.6,01.19,0.508
2015-06-24 03:58:00,1650E-3,5C000000,-0724,0822,12340,026.8,045.4,0.477,732.7,01.19,0.508
2015-06-24 03:59:00,1577E-3,5C000000,-0724,0821,12042,026.8,045.4,0.477,732.6,01.19,0.508
2015-06-24 04:00:00,1766E-3,5C000000,-0724,0823,12271,026.8,045.4,0.477,732.5,01.19,0.508
2015-06-24 04:01:00,1739E-3,5C000000,-0724,0822,12315,026.9,045.4,0.477,732.6,01.19,0.508
2015-06-24 04:02:00,1829E-3,5C000000,-0724,0823,12318,026.9,045.4,0.476,732.6,01.19,0.508
2015-06-24 04:03:00,1658E-3,5C000000,-0724,0823,12186,026.9,045.4,0.477,732.7,01.19,0.508
2015-06-24 04:04:00,1704E-3,5C000000,-0724,0823,12226,026.8,045.4,0.477,732.6,01.19,0.508
2015-06-24 04:05:00,1735E-3,5C000000,-0724,0822,12178,026.8,045.4,0.477,732.6,01.19,0.508
2015-06-24 04:06:00,1669E-3,5C000000,-0724,0823,12317,026.9,045.4,0.477,732.6,01.19,0.508
2015-06-24 04:07:00,1654E-3,5C000000,-0724,0823,12100,026.8,045.4,0.476,732.7,01.19,0.508
2015-06-24 04:08:00,1694E-3,5C000000,-0724,0824,12177,026.9,045.4,0.477,732.6,01.19,0.508
2015-06-24 04:09:00,1670E-3,5C000000,-0724,0823,12180,026.9,045.4,0.477,732.8,01.19,0.508
2015-06-24 04:10:00,1733E-3,5C000000,-0724,0823,12360,026.9,045.4,0.477,732.8,01.19,0.508
2015-06-24 04:11:00,1794E-3,5C000000,-0724,0823,12380,026.9,045.4,0.477,732.8,01.19,0.508
2015-06-24 04:12:00,1775E-3,5C000000,-0724,0823,12228,026.9,045.4,0.476,732.8,01.19,0.508
2015-06-24 04:13:00,1726E-3,5C000000,-0724,0824,12296,026.9,045.4,0.476,732.7,01.19,0.508
2015-06-24 04:14:00,1753E-3,5C000000,-0724,0822,12212,026.9,045.4,0.477,732.8,01.19,0.508
2015-06-24 04:15:00,1834E-3,5C000000,-0724,0823,12265,026.9,045.4,0.477,732.8,01.19,0.508
2015-06-24 04:16:00,1631E-3,5C000000,-0724,0822,12249,026.9,045.4,0.477,732.8,01.19,0.508
2015-06-24 04:17:00,1634E-3,5C000000,-0724,0823,12337,026.9,045.4,0.476,732.8,01.19,0.508
2015-06-24 04:18:00,1750E-3,5C000000,-0724,0822,12236,026.9,045.4,0.476,732.8,01.19,0.508
2015-06-24 04:19:00,1579E-3,5C000000,-0724,0821,12274,026.9,045.4,0.477,732.7,01.19,0.508
2015-06-24 04:20:00,1618E-3,5C000000,-0724,0823,12250,026.9,045.4,0.477,732.7,01.19,0.508